Weather in Khanata

Russia / Republic of Kalmykia     47°41′57″N   44°52′26″E
temp.,
°C
wind,
m/s
gust,
m/s
humid.,
%
clouds,
%
prec.,
mm/h
press.,
hPa
HPBL,
m
24 july, sat
sat2400:00+24nnw3542100 0.0 1007114
03:00+21n3549100 0.0 100979
06:00+22n254587 0.0 1009191
09:00+27nne223296 0.0 1010848
12:00+29nnw23290 0.0 10112283
15:00+31w132433 0.0 10103024
18:00+30nw652588 0.0 10111490
21:00+26nw46310 0.0 1013114
25 july, sun
sun2500:00+24nne473744 0.0 1014146
03:00+23ne36442 0.0 1015158
06:00+22ne36470 0.0 1016217
09:00+27ene45340 0.0 1017913
12:00+30ene32270 0.0 10172359
15:00+32ne22241 0.0 10172952
18:00+31ne22242 0.0 10172900
21:00+27ene59330 0.0 1018247
26 july, mon
mon2600:00+25e49350 0.0 1018216
03:00+23ene49371 0.0 1019190
06:00+24ese493949 0.0 1020322
09:00+29ese552717 0.0 1020936
12:00+32e54237 0.0 10202621
15:00+33e44229 0.0 10192934
18:00+32e44215 0.0 10183072
21:00+28ese5112991 0.0 1019324
27 july, tue
tue2700:00+25e4103392 0.0 1019285
03:00+24ene3535100 0.0 1019103
06:00+24ene373693 0.0 1020222
09:00+29e452439 0.0 1020938
12:00+31ene33215 0.0 10192494
15:00+32nne2321100 0.0 10173206
18:00+30n7824100 0.0 1017719
21:00+27ne4931100 0.0 1018386
28 july, wed
wed2800:00+24ne493695 0.0 1018252
03:00+22nne36365 0.0 1019125
06:00+22nne3636100 0.0 1019219
09:00+27ene44250 0.0 10191266
12:00+30ne33210 0.0 10172755
15:00+31nne23200 0.0 10163114
18:00+31se132075 0.0 10153207
21:00+29ese2224100 0.0 101649